Location: Putah Creek Observatory
(38.7021°N, 122.3865°W)
Time: 16:48:00
(UTC-08:00)

Cosmos 540 Rocket - Pass Details

Date: 27 May 2018
Orbit: 740 x 753 km, 74.1° (Epoch: 13 December)

Event Time Altitude Azimuth Distance (km) Brightness Sun altitude
Rises 21:57:12 0° 196° (SSW) 3,184 6.4 -15.2°
Reaches altitude 10° 21:59:33 10° 197° (SSW) 2,266 5.7 -15.6°
Maximum altitude 22:04:42 89° 116° (ESE) 758 3.4 -16.3°
Drops below altitude 10° 22:09:53 10° 19° (NNE) 2,284 6.3 -17.0°
Sets 22:12:16 0° 19° (NNE) 3,213 7.1 -17.3°
